Location: Newark
(35.6799°N, 139.7636°E)
Time: 23:09:27
(UTC+00:00)

Explorer 7 - Pass Details

Date: 14 December 2019
Orbit: 485 x 679 km, 50.3° (Epoch: 20 January)

Event Time Altitude Azimuth Distance (km) Brightness Sun altitude
Rises 10:32:22 0° 314° (NW) 3,033 11.1 -36.5°
Enters shadow 10:34:33 - 321° (NW) 2,247 10.3 -36.9°
Reaches altitude 10° 10:34:56 10° 323° (NW) 2,110 - -37.0°
Maximum altitude 10:39:25 35° 29° (NNE) 1,069 - -37.9°
Drops below altitude 10° 10:43:46 10° 96° (E) 2,039 - -38.8°
Sets 10:46:12 0° 105° (ESE) 2,918 - -39.3°
